Location: Ch�ze
(42.9000°N, 0.0333°W)
Time: 19:32:48
(UTC+00:00)

Cosmos 1812 Rocket - Pass Details

Date: 24 January 2021
Orbit: 604 x 633 km, 82.5° (Epoch: 07 March)

Event Time Altitude Azimuth Distance (km) Brightness Sun altitude
Rises 18:15:18 0° 357° (N) 2,903 6.9 -13.3°
Reaches altitude 10° 18:17:36 10° 2° (N) 1,988 6.0 -13.7°
Maximum altitude 18:21:52 50° 78° (ENE) 789 3.7 -14.5°
Drops below altitude 10° 18:26:05 10° 154° (SSE) 1,957 6.0 -15.3°
Sets 18:28:20 0° 160° (SSE) 2,853 6.9 -15.7°
